Jackson, KY

6:15 PM EDT on July 25, 2017 (GMT -0400)
Carroll

Weather History for KJKL - November, 2014

Change the Weather History Date:

Sunday, November 23, 2014

  Actual Average Record
Temperature  
Mean Temperature 56 °F 46 °F  
Max Temperature 62 °F 54 °F 75 °F (1999)
Min Temperature 49 °F 37 °F 21 °F (2015)
Degree Days  
Heating Degree Days 9 20  
Month to date heating degree days 549 356  
Since 1 July heating degree days 848 653  
Cooling Degree Days 0 0  
Month to date cooling degree days 0 0  
Year to date cooling degree days 1165 1150  
Growing Degree Days 4 (Base 50)    
Moisture  
Dew Point 41 °F    
Average Humidity 65    
Maximum Humidity 89    
Minimum Humidity 41    
Precipitation  
Precipitation 0.25 in 0.13 in 0.71 in (2010)
Month to date precipitation 2.95 2.98  
Year to date precipitation 51.37 43.18  
Snow  
Snow 0.00 in 0.10 in T in (2013)
Month to date snowfall 1.0 0.3  
Since 1 July snowfall 1.0 0.4  
Since 1 September snowfall 1.0 0.4  
Snow Depth 0.00 in    
Sea Level Pressure  
Sea Level Pressure 29.81 in    
Wind  
Wind Speed 5 mph (SE)    
Max Wind Speed 17 mph    
Max Gust Speed 31 mph    
Visibility 9 miles    
Events Rain    
T = Trace of Precipitation, MM = Missing Value Source: NWS Daily Summary

Daily Weather History Graph

Daily Weather History Graph

Search for Another Location

Airport or City:

Trip Planner

Search our weather history database for the weather conditions in past years. The results will help you decide how hot, cold, wet, or windy it might be!

Date:

Astronomy

Nov. 23, 2014 Rise Set
Actual Time 7:21 AM EST 5:17 PM EST
Civil Twilight 6:53 AM EST 5:46 PM EST
Nautical Twilight 6:21 AM EST 6:18 PM EST
Astronomical Twilight 5:49 AM EST 6:49 PM EST
Moon 8:16 AM EST (11/23) 6:39 PM EST (11/23)
Length of Visible Light 10h 53m
Length of Day
9h 56m
New Moon, 2% of the Moon is Illuminated
Nov 23
New Moon
Nov 29
First Quarter
Dec 6
Full
Dec 14
Last Quarter
Dec 21
New

Hourly Weather History & Observations

Time (EST) Temp. Dew Point Humidity Pressure Visibility Wind Dir Wind Speed Gust Speed Precip Events Conditions
12:53 AM 50.0 °F 28.9 °F 44% 30.11 in 10.0 mi SSW 3.5 mph - N/A   Overcast
1:53 AM 51.1 °F 28.9 °F 43% 30.09 in 10.0 mi Variable 3.5 mph - N/A   Overcast
2:53 AM 51.1 °F 30.0 °F 44% 30.09 in 10.0 mi Variable 3.5 mph - N/A   Overcast
3:53 AM 52.0 °F 30.9 °F 45% 30.08 in 10.0 mi Calm Calm - N/A   Overcast
4:53 AM 52.0 °F 30.9 °F 45% 30.06 in 10.0 mi Variable 3.5 mph - N/A   Overcast
5:53 AM 50.0 °F 30.0 °F 46% 30.05 in 10.0 mi ESE 3.5 mph - N/A   Mostly Cloudy
6:53 AM 50.0 °F 32.0 °F 50% 30.05 in 10.0 mi ESE 5.8 mph - N/A   Overcast
7:53 AM 48.9 °F 32.0 °F 52% 30.03 in 10.0 mi ESE 4.6 mph - N/A   Clear
8:53 AM 50.0 °F 34.0 °F 54% 30.01 in 10.0 mi East 4.6 mph - N/A   Clear
9:53 AM 53.1 °F 36.0 °F 52% 29.98 in 10.0 mi Calm Calm - N/A   Partly Cloudy
10:53 AM 55.9 °F 39.0 °F 53% 29.95 in 10.0 mi Variable 4.6 mph - N/A   Overcast
11:53 AM 57.0 °F 41.0 °F 55% 29.91 in 10.0 mi Variable 3.5 mph - N/A   Overcast
12:53 PM 57.0 °F 44.1 °F 62% 29.85 in 10.0 mi Variable 4.6 mph - 0.00 in Rain Light Rain
1:53 PM 57.0 °F 46.9 °F 69% 29.81 in 5.0 mi SE 6.9 mph - 0.01 in Rain Light Rain
2:53 PM 54.0 °F 48.9 °F 83% 29.75 in 8.0 mi Variable 5.8 mph - 0.06 in Rain Light Rain
3:53 PM 53.1 °F 50.0 °F 89% 29.68 in 5.0 mi Variable 3.5 mph - 0.04 in Rain Light Rain
4:53 PM 54.0 °F 50.0 °F 86% 29.63 in 10.0 mi SE 6.9 mph - 0.00 in   Partly Cloudy
5:53 PM 54.0 °F 51.1 °F 90% 29.58 in 7.0 mi SSE 6.9 mph - 0.05 in Rain Light Rain
6:53 PM 55.9 °F 51.1 °F 84% 29.55 in 10.0 mi SE 8.1 mph - 0.08 in Rain Light Rain
7:53 PM 57.9 °F 52.0 °F 81% 29.49 in 10.0 mi SE 10.4 mph 19.6 mph 0.01 in   Mostly Cloudy
8:53 PM 57.9 °F 53.1 °F 84% 29.47 in 10.0 mi SSE 8.1 mph - N/A   Mostly Cloudy
9:53 PM 57.9 °F 52.0 °F 81% 29.44 in 10.0 mi Variable 6.9 mph - N/A   Mostly Cloudy
10:53 PM 60.1 °F 51.1 °F 72% 29.43 in 10.0 mi Variable 5.8 mph 19.6 mph N/A   Overcast
11:53 PM 61.0 °F 52.0 °F 72% 29.43 in 10.0 mi South 10.4 mph 27.6 mph 0.00 in   Overcast